Location: Newark
(27.9675°N, 86.8869°E)
Time: 18:24:03
(UTC+00:00)

Altair - Pass Details

Date: 30 October 2019
Orbit: 1502 x 1682 km, 47.2° (Epoch: 17 November)

Event Time Altitude Azimuth Distance (km) Brightness Sun altitude
Rises 10:40:18 0° 303° (WNW) 4,853 10.7 9.6°
Reaches altitude 10° 10:43:37 10° 297° (WNW) 3,886 10.4 8.9°
Maximum altitude 10:52:44 42° 231° (SW) 2,248 9.4 7.1°
Drops below altitude 10° 11:02:00 10° 165° (SSE) 3,933 9.7 5.1°
Sets 11:05:25 0° 158° (SSE) 4,916 10.1 4.4°
